Location: Ch�ze
(42.9000°N, 0.0333°W)
Time: 15:54:39
(UTC+00:00)

Daily predictions for brighter satellites

Satellite Brightness Start Highest point End
(mag) Time Altitude Azimuth Time Altitude Azimuth Time Altitude Azimuth
SMAP 3.1 17:24:56 10° SSE 17:29:36 88° WSW 17:34:16 10° NNW
CZ-4B R/B 3.3 17:24:31 10° SSE 17:30:04 81° ENE 17:35:44 10° NNW
Lacrosse 5 1.9 17:29:19 10° NW 17:34:22 66° NE 17:39:23 10° ESE
SL-24 R/B 4.3 17:32:15 10° SSE 17:36:37 86° WSW 17:41:23 10° NNW
Cosmos 1939 Rocket 3.2 17:32:54 10° SE 17:36:49 44° ENE 17:40:43 10° N
Cosmos 1315 Rocket 4.4 17:34:14 10° NNW 17:38:01 41° W 17:41:49 10° SSW
COSMO-SKYMED 1 3.2 17:35:15 10° NNE 17:39:17 36° E 17:43:17 10° SSE
CZ-4C R/B 4.3 17:35:55 10° WNW 17:39:21 16° NNW 17:43:10 10° NNE
CREW DRAGON DEMO-1 DEB 3.1 17:38:38 10° NW 17:41:26 44° NNE 17:44:13 10° ESE
Cosmos 1680 Rocket 4.2 17:36:48 10° N 17:41:29 32° ENE 17:46:07 10° SE
Aureole 3 Rocket 4.4 17:43:15 10° ENE 17:44:12 11° ENE 17:45:11 10° E
ISS -2.8 17:42:58 10° W 17:46:11 41° NNW 17:49:25 10° NE
Feng Yun 1-1 Rocket 4.4 17:41:01 10° SE 17:46:15 51° ENE 17:51:39 10° N
CORIOLIS 4.4 17:40:57 10° S 17:46:20 76° WSW 17:51:44 10° NNW
NOSS 2-1 (E) 4.0 17:44:23 10° S 17:47:17 26° ESE 17:49:50 12° ENE
CZ-2D R/B 3.8 17:43:55 10° SE 17:47:28 37° ENE 17:51:01 10° N
Cosmos 1340 3.9 17:48:29 10° SE 17:51:25 22° E 17:54:20 10° NE
IRS-1C Rocket 4.4 17:46:48 10° SE 17:51:43 42° ENE 17:56:38 10° N
H-2A R/B 2.9 17:47:54 10° ESE 17:52:03 27° ENE 17:56:17 10° N
Meteor 1-21 Rocket 4.4 17:47:20 10° SSE 17:52:39 51° E 17:58:01 10° NNE
ERS-2 3.1 17:51:25 10° NE 17:54:34 27° E 17:57:42 10° SSE
Cosmos 1455 2.3 17:51:46 10° N 17:55:31 53° E 17:59:17 10° SSE
Cosmos 2263 Rocket 4.3 17:53:00 10° W 17:57:16 21° NW 18:01:33 10° N
CZ-4 R/B 2.2 17:54:00 10° SE 17:57:32 29° ENE 18:01:02 10° N
Cosmos 1602 Rocket 4.1 17:57:37 10° SSE 18:01:36 37° E 18:05:38 10° NNE
ARGOS 4.1 17:58:26 10° ESE 18:02:44 25° ENE 18:07:03 10° N
COSMOS 2455 3.8 17:57:33 10° SW 18:03:19 46° NW 18:09:08 10° NNE
H-2A R/B 3.2 17:59:54 10° N 18:04:07 45° WNW 18:08:14 10° SW
Okean O Rocket 2.7 18:00:32 10° S 18:04:51 50° W 18:09:10 10° NNW
Cosmos 1937 Rocket 4.2 18:01:30 10° SSE 18:06:12 33° E 18:10:47 11° NE
Cosmos 1818 4.1 18:01:15 10° SW 18:06:35 58° NW 18:11:59 10° NNE
YAOGAN 1 3.2 18:02:51 10° SE 18:06:43 33° ENE 18:10:37 10° N
Okean-O 3.1 18:05:15 10° SE 18:09:19 37° ENE 18:13:24 10° N
PSLV R/B 4.4 18:07:28 10° NNE 18:11:27 40° E 18:15:25 10° S
CZ-2C R/B 3.9 18:10:30 14° NE 18:13:36 22° E 18:17:49 10° SE
Aureole 2 Rocket 4.5 18:11:43 10° WSW 18:14:11 22° WNW 18:16:43 10° N
CZ-2C R/B 3.1 18:08:53 10° SSE 18:14:12 72° ENE 18:19:51 10° N
SJ 16-02 2.0 18:09:54 10° SSW 18:14:13 58° WNW 18:18:35 10° N
Cosmos 2112 Rocket 4.0 18:15:16 10° NNW 18:20:27 58° ENE 18:25:33 10° SE
Cosmos 1812 Rocket 3.7 18:17:37 10° N 18:21:53 50° ENE 18:26:06 10° SSE
Meteor 2-1 Rocket 4.3 18:16:22 10° NNW 18:21:56 82° W 18:27:26 10° S
NOSS 3-1 (C) 4.1 18:15:04 10° NNW 18:22:29 60° NE 18:31:02 10° SE
Cosmos 44 3.3 18:20:45 10° SW 18:25:30 83° WNW 18:29:51 14° NNE
CZ-4B R/B 2.3 18:22:42 10° N 18:25:56 47° WNW 18:29:04 10° SSW
Cosmos 1703 3.1 18:22:48 10° S 18:26:41 83° E 18:30:34 10° N
SKYMED 2 3.9 18:23:05 10° N 18:27:24 67° WNW 18:31:42 10° SSW
Cosmos 1627 Rocket 4.5 18:21:24 10° S 18:27:27 60° E 18:33:36 10° NNE
SAR-Lupe-4 3.6 18:24:43 16° NNE 18:27:28 55° E 18:30:58 10° S
X-37B 0.8 18:25:25 10° W 18:28:34 56° N 18:29:27 39° NE
COSMOS 2406 3.7 18:25:37 10° N 18:31:00 38° ENE 18:34:24 20° ESE
Cosmos 1833 Rocket 3.3 18:27:31 10° N 18:32:36 34° NE 18:34:40 26° E
NOSS 2-1 (C) 3.1 18:33:03 10° SW 18:36:23 67° NW 18:37:54 29° NNE
Cosmos 990 Rocket 4.0 18:32:00 10° SSW 18:37:13 81° WNW 18:42:26 10° NNE
BREEZE-M DEB (TANK) 3.6 18:37:13 10° NW 18:38:32 21° N 18:38:32 21° N
Cosmos 1092 Rocket 3.9 18:33:15 10° S 18:39:26 90° ESE 18:45:38 10° N
Cosmos 1346 Rocket 3.8 18:37:48 10° SSE 18:40:13 28° SE 18:40:13 28° SE
USA 229 DEB 4.0 18:34:29 10° NNW 18:41:41 57° NE 18:47:27 18° ESE
USA 229 4.0 18:34:35 10° NNW 18:41:46 56° NE 18:47:25 19° ESE
NOSS 2-1 (D) 3.4 18:39:00 10° SW 18:42:19 56° NW 18:43:40 30° NNE
USA 267 4.3 18:41:52 23° ESE 18:43:02 24° SE 18:48:08 10° S
Cosmos 2082 Rocket 3.3 18:38:50 10° N 18:43:03 24° NE 18:43:03 24° NE
SAR-Lupe-1 4.0 18:41:10 18° NNE 18:43:45 90° NW 18:47:20 10° SSW
MOS 1 Rocket 3.8 18:42:41 10° N 18:46:52 53° WNW 18:51:02 10° SSW
Cosmos 1689 Rocket 2.1 18:46:58 60° NNW 18:47:21 72° WNW 18:50:09 10° SSW
Cosmos 1844 Rocket 4.2 18:44:17 10° WSW 18:49:24 34° NW 18:54:32 10° N
Helios 1A Rocket 2.8 18:47:58 10° SSE 18:52:05 79° ENE 18:56:15 10° N
NOSS 3-1 (A) 4.1 18:49:50 10° NNW 18:57:18 62° NE 19:02:47 24° ESE
Cosmos 405 3.3 19:00:28 10° NNW 19:03:23 57° NNW 19:03:23 57° NNW
Meteor 2-19 Rocket 4.3 19:00:39 10° S 19:06:48 86° E 19:13:00 10° N
Cosmos 2278 Rocket 2.1 19:03:06 10° SSW 19:08:43 70° ESE 19:10:25 45° NE
CSL-04 Rocket 3.6 19:05:16 10° SSE 19:10:41 87° ENE 19:16:12 10° NNW
Iridium 4 Rocket 4.1 19:09:15 10° N 19:14:40 59° W 19:19:35 10° SSW
Lacrosse 5 4.1 19:13:02 10° WNW 19:16:56 23° WSW 19:20:49 10° S
USA 234 4.2 19:16:51 29° NNE 19:17:52 31° NNE 19:23:26 10° NW
Cosmos 1758 Rocket 4.3 19:17:24 10° SSW 19:21:44 53° WNW 19:24:45 19° N
Meteor 1-11 4.5 19:16:50 10° SSW 19:22:30 69° WNW 19:28:09 10° N
ISS -1.1 19:21:08 10° NW 19:22:23 16° NW 19:22:23 16° NW
Cosmos 1417 Rocket 4.3 19:23:18 10° N 19:29:34 86° E 19:35:51 10° S
H-2A R/B 3.3 19:26:37 10° SSW 19:31:16 39° W 19:36:04 10° NNW
Aureole 3 Rocket 4.5 19:28:51 10° NNW 19:31:38 28° W 19:34:52 10° SSW
CZ-4 R/B 3.8 19:29:18 10° SSW 19:32:32 23° W 19:35:45 10° NW
Cosmos 1553 Rocket 4.1 19:26:58 10° N 19:33:23 78° W 19:39:41 10° S
Cosmos 2292 Rocket 4.5 19:27:41 10° S 19:31:56 48° S 19:31:56 48° S
Cosmos-2242 3.9 19:31:03 10° NNW 19:35:11 48° W 19:36:27 36° SW
Cosmos 372 Rocket 4.1 19:33:27 10° SSW 19:38:36 73° WNW 19:38:36 73° WNW
ARGOS 4.1 19:37:35 10° S 19:42:43 46° W 19:47:52 10° NNW
Cosmos 1655 Rocket 3.9 19:38:26 10° S 19:44:08 76° S 19:44:08 76° S
CZ-2C R/B 3.3 19:51:59 34° NNW 19:54:11 55° WNW 19:59:38 10° SSW
S3M 4.0 19:51:24 10° NNW 19:57:15 72° WNW 19:57:15 72° WNW
CZ-3B R/B 3.8 20:02:48 10° WNW 20:06:47 53° SW 20:22:04 10° SSE
Cosmos 1833 Rocket 3.9 20:11:24 10° NW 20:16:28 37° WSW 20:16:28 37° WSW
USA 267 4.2 20:29:14 40° SW 20:29:14 40° SW 20:33:08 10° SW
Cosmos 2082 Rocket 3.9 20:22:21 10° NNW 20:24:57 27° NW 20:24:57 27° NW
Cosmos 2278 Rocket 4.5 20:49:11 10° W 20:52:20 20° WNW 20:52:20 20° WNW
